Location: St. Louis
(38.6270°N, 90.1994°W)
Time: 03:20:26
(UTC-05:00)

NOAA 16 DEB - Visible Passes

Search period start: 26 June 2022 00:00
Search period end: 06 July 2022 00:00
Orbit: 842 x 1012 km, 98.9° (Epoch: 20 June)

Date Brightness Start Highest point End Pass type
(mag) Time Alt. Az. Time Alt. Az. Time Alt. Az.
26 Jun ? 03:29:49 10° ENE 03:32:36 13° E 03:35:21 10° ESE visible
27 Jun ? 03:39:34 10° NE 03:43:20 17° E 03:47:00 10° SE visible
28 Jun ? 03:49:37 10° NE 03:54:02 21° E 03:58:19 10° SE visible
29 Jun ? 03:59:48 10° NE 04:04:43 26° E 04:09:28 10° SSE visible
30 Jun ? 04:10:06 10° NNE 04:15:23 32° E 04:20:27 10° SSE visible
01 Jul ? 04:20:27 10° NNE 04:26:00 40° E 04:31:19 10° SSE visible
02 Jul ? 04:30:52 10° NNE 04:36:37 49° E 04:42:05 10° S visible
03 Jul ? 04:41:18 10° NNE 04:47:11 61° E 04:52:47 10° S visible
04 Jul ? 04:51:49 10° NNE 04:57:45 75° ESE 05:03:23 10° S visible
05 Jul ? 03:23:49 10° ENE 03:25:12 11° E 03:26:35 10° ESE visible
05 Jul ? 05:02:20 10° NNE 05:08:16 89° WNW 05:13:54 10° SSW visible
